FW8355 Weather Reports


Display with metric or nautical units.
time (UTC)temp
F
wind
direction
speed
MPH
gust
MPH
rain 1hr
in
rain 24hr
in
rain mn
in
humidity
%
barometer
mb
20260905180516 80 225 1.0 4.0 0.00 0.00 0.00 79 1016.7
20260905175516 81 203 1.0 4.0 0.00 0.00 0.00 77 1016.5
20260905174516 81 225 2.0 7.0 0.00 0.00 0.00 78 1016.4
20260905173517 81 203 2.0 5.0 0.00 0.00 0.00 79 1016.2
20260905172536 82 203 4.0 11.0 0.00 0.00 0.00 79 1016.2
20260905171516 82 203 3.0 6.0 0.00 0.00 0.00 78 1016.3
20260905170517 83 225 5.0 11.0 0.00 0.00 0.00 76 1016.2
20260905165516 84 203 4.0 8.0 0.00 0.00 0.00 75 1016.3
20260905164516 84 225 5.0 10.0 0.00 0.00 0.00 74 1016.3
20260905163516 85 203 5.0 12.0 0.00 0.00 0.00 74 1016.2
20260905162516 85 203 4.0 8.0 0.00 0.00 0.00 74 1016.1
20260905161516 85 203 7.0 14.0 0.00 0.00 0.00 74 1016.2
20260905160516 85 203 7.0 13.0 0.00 0.00 0.00 73 1016.2
20260905155516 86 203 6.0 11.0 0.00 0.00 0.00 70 1016.2
20260905154516 86 203 6.0 11.0 0.00 0.00 0.00 69 1016.1
20260905153516 87 203 6.0 11.0 0.00 0.00 0.00 68 1016.2
20260905152516 87 203 6.0 11.0 0.00 0.00 0.00 66 1016.1
20260905151536 87 203 6.0 12.0 0.00 0.00 0.00 65 1016.1
20260905150516 87 203 9.0 16.0 0.00 0.00 0.00 66 1016.1
20260905145516 87 203 7.0 12.0 0.00 0.00 0.00 63 1016.1
20260905144516 88 203 6.0 11.0 0.00 0.00 0.00 63 1016.2
20260905143516 88 203 7.0 13.0 0.00 0.00 0.00 61 1016.3
20260905142536 88 203 6.0 12.0 0.00 0.00 0.00 60 1016.3
20260905141516 88 203 6.0 12.0 0.00 0.00 0.00 61 1016.3
20260905140516 88 203 7.0 14.0 0.00 0.00 0.00 56 1016.4
20260905135516 88 203 7.0 13.0 0.00 0.00 0.00 60 1016.5
20260905134516 88 203 7.0 13.0 0.00 0.00 0.00 62 1016.5
20260905133516 88 203 6.0 13.0 0.00 0.00 0.00 60 1016.5
20260905132516 88 203 7.0 15.0 0.00 0.00 0.00 59 1016.6
20260905131516 89 203 6.0 11.0 0.00 0.00 0.00 57 1016.8
20260905130516 89 225 5.0 11.0 0.00 0.00 0.00 57 1016.8
20260905125516 89 225 7.0 15.0 0.00 0.00 0.00 58 1016.8
20260905124516 89 203 7.0 21.0 0.00 0.00 0.00 56 1016.8
20260905123516 89 203 6.0 13.0 0.00 0.00 0.00 57 1016.9
20260905122516 89 203 5.0 12.0 0.00 0.00 0.00 56 1017.0
20260905121516 89 225 7.0 12.0 0.00 0.00 0.00 57 1017.0
20260905120516 89 203 8.0 14.0 0.00 0.00 0.00 55 1017.0
20260905115516 89 248 6.0 15.0 0.00 0.00 0.00 57 1016.9
20260905114516 89 203 9.0 15.0 0.00 0.00 0.00 57 1017.0
20260905113516 89 225 9.0 16.0 0.00 0.00 0.00 57 1017.1
20260905112516 90 203 6.0 16.0 0.00 0.00 0.00 54 1017.0
20260905111516 90 225 6.0 14.0 0.00 0.00 0.00 53 1017.0
20260905110536 90 203 7.0 14.0 0.00 0.00 0.00 53 1016.9
20260905105516 90 225 6.0 15.0 0.00 0.00 0.00 54 1016.9
20260905104536 89 203 8.0 15.0 0.00 0.00 0.00 57 1016.9
20260905103516 89 225 9.0 16.0 0.00 0.00 0.00 59 1016.9
20260905102516 89 203 8.0 19.0 0.00 0.00 0.00 59 1017.0
20260905101519 89 203 5.0 11.0 0.00 0.00 0.00 60 1017.2
20260905100515 88 203 7.0 17.0 0.00 0.00 0.00 60 1017.1
20260905095515 88 225 6.0 11.0 0.00 0.00 0.00 60 1017.3
20260905094515 88 203 6.0 14.0 0.00 0.00 0.00 58 1017.5
20260905093516 88 203 8.0 13.0 0.00 0.00 0.00 58 1017.5
20260905092516 88 225 5.0 11.0 0.00 0.00 0.00 59 1017.7
20260905091515 88 203 4.0 13.0 0.00 0.00 0.00 59 1017.7
20260905090516 87 203 4.0 8.0 0.00 0.00 0.00 59 1017.7
20260905085516 86 203 7.0 12.0 0.00 0.00 0.00 59 1017.6
20260905084515 87 203 6.0 12.0 0.00 0.00 0.00 60 1017.7
20260905083516 87 203 3.0 8.0 0.00 0.00 0.00 61 1017.6
20260905082535 87 203 3.0 6.0 0.00 0.00 0.00 62 1017.7
20260905081516 86 203 3.0 9.0 0.00 0.00 0.00 61 1017.8
20260905080535 86 203 3.0 6.0 0.00 0.00 0.00 59 1017.6
20260905075517 85 203 4.0 8.0 0.00 0.00 0.00 56 1017.7
20260905074516 85 180 2.0 5.0 0.00 0.00 0.00 50 1017.6
20260905073517 84 113 3.0 5.0 0.00 0.00 0.00 51 1017.7
20260905072515 83 135 2.0 4.0 0.00 0.00 0.00 50 1017.6
20260905071537 83 113 1.0 3.0 0.00 0.00 0.00 49 1017.5
20260905070537 83 0.0 1.0 0.00 0.00 0.00 50 1017.5
20260905065517 82 180 1.0 3.0 0.00 0.00 0.00 50 1017.5
20260905064517 81 203 1.0 3.0 0.00 0.00 0.00 51 1017.5
20260905063517 80 0.0 0.0 0.00 0.00 0.00 52 1017.3
20260905062517 79 0.0 2.0 0.00 0.00 0.00 55 1017.3
20260905061517 77 113 1.0 3.0 0.00 0.00 0.00 55 1017.3
20260905060517 77 90 1.0 2.0 0.00 0.00 0.00 56 1017.2
20260905055517 75 90 2.0 3.0 0.00 0.00 0.00 59 1017.2
20260905054517 75 0.0 0.0 0.00 0.00 0.00 59 1017.1
20260905053519 74 113 1.0 3.0 0.00 0.00 0.00 58 1017.0
20260905052517 73 90 1.0 4.0 0.00 0.00 0.00 57 1016.8
20260905051537 72 0.0 2.0 0.00 0.00 0.00 57 1016.8
20260905050517 70 45 3.0 6.0 0.00 0.00 0.00 60 1016.8
20260905045537 70 23 2.0 3.0 0.00 0.00 0.00 59 1016.7
20260905044517 70 23 1.0 4.0 0.00 0.00 0.00 58 1016.8
20260905043517 70 0.0 3.0 0.00 0.00 0.00 57 1016.8
20260905042517 69 23 4.0 5.0 0.00 0.00 0.00 60 1016.7
20260905041517 70 23 1.0 3.0 0.00 0.00 0.00 60 1016.7
20260905040517 69 0 2.0 3.0 0.00 0.00 0.00 61 1016.6
20260905035537 69 23 1.0 3.0 0.00 0.00 0.00 62 1016.7
20260905034517 70 0 1.0 3.0 0.00 0.00 0.00 62 1016.8
20260905033517 70 0.0 1.0 0.00 0.00 0.00 60 1016.8
20260905032517 71 0.0 2.0 0.00 0.00 0.00 58 1016.6
20260905031517 70 293 1.0 2.0 0.00 0.00 0.00 57 1016.4
20260905030517 71 0.0 1.0 0.00 0.00 0.00 56 1016.4
20260905025517 71 338 1.0 4.0 0.00 0.00 0.00 56 1016.3
20260905024517 70 0 1.0 2.0 0.00 0.00 0.00 58 1016.2
20260905023517 70 0.0 1.0 0.00 0.00 0.00 59 1016.3
20260905022537 70 0.0 1.0 0.00 0.00 0.00 60 1016.3
20260905021517 71 23 1.0 3.0 0.00 0.00 0.00 59 1016.3
20260905020517 71 23 2.0 3.0 0.00 0.00 0.00 58 1016.2
20260905015537 72 45 1.0 2.0 0.00 0.00 0.00 56 1016.2
20260905014517 73 23 1.0 3.0 0.00 0.00 0.00 53 1016.2
20260905013517 73 0.0 1.0 0.00 0.00 0.00 52 1016.3
20260905012537 73 23 3.0 6.0 0.00 0.00 0.00 53 1016.3
20260905011517 73 23 3.0 6.0 0.00 0.00 0.00 53 1016.2
20260905010517 73 23 1.0 2.0 0.00 0.00 0.00 53 1016.2
20260905005516 73 23 2.0 4.0 0.00 0.00 0.00 55 1016.4
20260905004517 72 23 3.0 5.0 0.00 0.00 0.00 56 1016.4
20260905003517 72 68 1.0 3.0 0.00 0.00 0.00 56 1016.3
20260905002516 72 45 1.0 3.0 0.00 0.00 0.00 54 1016.2
20260905001537 74 0.0 2.0 0.00 0.00 0.00 53 1016.4
20260905000516 74 0 1.0 3.0 0.00 0.00 0.00 53 1016.4
20260904235517 75 45 1.0 2.0 0.00 0.00 0.00 51 1016.5
20260904234516 75 23 3.0 5.0 0.00 0.00 0.00 51 1016.4
20260904233517 74 45 3.0 6.0 0.00 0.00 0.00 53 1016.4
20260904232516 74 23 1.0 2.0 0.00 0.00 0.00 54 1016.4
20260904231537 75 23 1.0 2.0 0.00 0.00 0.00 52 1016.6
20260904230517 75 23 1.0 3.0 0.00 0.00 0.00 51 1016.6
20260904225516 74 23 2.0 3.0 0.00 0.00 0.00 52 1016.5
20260904224518 75 23 1.0 2.0 0.00 0.00 0.00 51 1016.5
20260904223516 75 0.0 1.0 0.00 0.00 0.00 50 1016.6
20260904222516 76 0.0 3.0 0.00 0.00 0.00 49 1016.5
20260904221517 75 23 4.0 7.0 0.00 0.00 0.00 50 1016.6
20260904220516 75 23 2.0 5.0 0.00 0.00 0.00 52 1016.5
20260904215517 75 0.0 2.0 0.00 0.00 0.00 53 1016.5
20260904214517 76 338 1.0 3.0 0.00 0.00 0.00 55 1016.4
20260904213517 76 338 3.0 4.0 0.00 0.00 0.00 55 1016.4
20260904212517 77 23 1.0 3.0 0.00 0.00 0.00 52 1016.5
20260904211517 76 23 2.0 3.0 0.00 0.00 0.00 54 1016.6
20260904210517 77 338 2.0 3.0 0.00 0.00 0.00 56 1016.6
20260904205516 76 338 3.0 5.0 0.00 0.00 0.00 60 1016.6
20260904204517 76 315 2.0 3.0 0.00 0.00 0.00 64 1016.6
20260904203517 76 315 2.0 3.0 0.00 0.00 0.00 64 1016.6
20260904202516 76 293 2.0 3.0 0.00 0.00 0.00 64 1016.5
20260904201537 77 315 1.0 2.0 0.00 0.00 0.00 63 1016.7
20260904200537 77 0.0 2.0 0.00 0.00 0.00 61 1016.7
20260904195516 77 0 1.0 2.0 0.00 0.00 0.00 61 1016.7
20260904194517 77 293 2.0 2.0 0.00 0.00 0.00 63 1016.6
20260904193517 78 315 1.0 2.0 0.00 0.00 0.00 60 1016.6
20260904192516 79 293 2.0 3.0 0.00 0.00 0.00 61 1016.5
20260904191516 79 338 2.0 4.0 0.00 0.00 0.00 58 1016.6
20260904190556 80 315 1.0 2.0 0.00 0.00 0.00 54 1016.5
20260904185516 80 293 1.0 3.0 0.00 0.00 0.00 57 1016.5
20260904184517 79 293 1.0 3.0 0.00 0.00 0.00 58 1016.4
20260904183517 78 315 1.0 4.0 0.00 0.00 0.00 69 1016.3
20260904182516 79 315 1.0 3.0 0.00 0.00 0.00 69 1016.2
20260904181517 79 270 1.0 3.0 0.00 0.00 0.00 68 1016.2